Regional Weather Roundup
Issued by NWS

Home | Current Version | Previous Version | Text Only | Print | Product List | Glossary On
Versions: 1 2 3 4 5 6 7 8 9 10 11 12 13 14 15 16 17 18 19 20 21 22 23 24 25 26 27 28 29 30 31 32 33 34 35 36 37 38 39 40 41 42 43 44 45 46 47 48 49 50
000
ASUS43 KLMK 020110
RWRKY
KENTUCKY REGIONAL WEATHER ROUNDUP
NATIONAL WEATHER SERVICE LOUISVILLE KY
900 PM EDT WED APR 01 2015

NOTE "FAIR" INDICATES FEW OR NO CLOUDS BELOW 12,000 FEET
WITH NO SIGNIFICANT WEATHER AND/OR OBSTRUCTIONS TO VISIBILITY.

KYZ001>023-026-027-061>063-070>075-020200-
WESTERN AND SOUTH CENTRAL KENTUCKY

CITY           SKY/WX    TMP DP  RH WIND       PRES   REMARKS
PADUCAH        CLOUDY    65  46  50 E8        29.95S
HENDERSON      MOCLDY    64  36  34 SE5       29.99R
OWENSBORO      MOCLDY    63  38  39 SE8       30.01S
HOPKINSVILLE   CLOUDY    65  40  39 E6        30.01R
BOWLING GREEN  MOCLDY    59  35  40 CALM      30.04R
GLASGOW        MOCLDY    56  32  39 CALM      30.05R
$$

KYZ024-025-028>034-038-045-046-053-020200-
NORTH CENTRAL KENTUCKY

CITY           SKY/WX    TMP DP  RH WIND       PRES   REMARKS
LOUISVILLE/SDF MOCLDY    61  30  31 SE5       30.05S
LOUISVILLE/LOU PTCLDY    62  29  28 E3        30.05S
FORT KNOX      MOCLDY    61  30  31 SE7       30.04R HAZE
$$

KYZ035>037-039>044-047>052-055>060-089>105-020200-
NORTHEAST KENTUCKY

CITY           SKY/WX    TMP DP  RH WIND       PRES   REMARKS
LEXINGTON      MOCLDY    58  26  29 E6        30.09R
COVINGTON      MOCLDY    56  29  35 SE7       30.08R
FRANKFORT      PTCLDY    54  30  40 E6        30.06S
$$

KYZ054-064>069-076>088-106>120-020200-
SOUTHEAST KENTUCKY

CITY           SKY/WX    TMP DP  RH WIND       PRES   REMARKS
JACKSON        PTCLDY    60  17  18 VRB3      30.10F
LONDON         MOCLDY    59  23  25 CALM      30.08R
SOMERSET       PTCLDY    59  19  21 CALM      30.08S
MIDDLESBORO    PTCLDY    57  33  40 CALM      30.10R
MONTICELLO     PTCLDY    54  31  41 CALM      30.09R
$$



USA.gov is the U.S. government's official web portal to all federal, state and local government web resources and services.